Wind_Speed
45 45 46 46 46 45 45 45 44 43 42 41 40 40 39 38 38 37 37 36 35 35 33 32 31 30 30 29 29 29 28 28 27 27 26 26 25 24 24 23 22 21 21 21 20 19 18 17 17 15 14 14 15 14 11 9 8 7 10 12 14 16 16 16 13 11 10 8 8 10 8 10 13 12 14 15 15 16 15 15 16 17 19 21 23 25 27 25
44 44 45 45 46 46 46 45 45 44 44 43 42 41 40 39 39 38 38 37 36 36 35 33 32 31 30 30 30 29 29 28 27 26 26 25 24 23 22 21 20 20 20 21 20 20 19 18 17 16 15 16 17 17 14 14 13 10 14 15 13 15 16 16 15 13 12 11 11 11 8 11 15 13 14 16 16 17 17 17 18 18 19 22 24 26 26 24
44 44 44 44 45 45 46 46 46 45 45 44 43 42 42 41 40 40 39 38 38 37 36 35 33 32 32 31 31 30 29 29 28 27 26 25 24 23 22 20 19 19 19 20 20 20 19 18 17 16 17 18 19 19 17 19 19 16 17 16 14 16 17 16 16 16 13 12 14 13 10 14 16 14 16 17 18 19 19 19 19 18 17 18 21 22 22 23
45 45 45 45 45 45 45 46 46 46 46 45 44 44 43 42 42 41 41 40 39 38 38 37 35 34 33 33 32 32 31 30 30 28 27 25 24 22 22 20 18 18 18 19 20 20 20 19 18 17 19 19 18 19 19 20 22 19 18 17 16 19 19 17 16 16 14 13 15 14 13 16 16 16 17 17 18 20 20 19 17 18 18 18 21 22 23 23
46 46 46 46 45 45 45 45 46 46 46 46 45 45 44 44 43 42 42 41 41 40 39 38 37 36 35 34 34 33 32 32 32 30 28 26 24 23 22 20 19 18 18 19 20 20 21 20 19 19 20 19 17 18 19 20 21 20 19 19 19 20 20 19 18 17 15 15 15 13 13 17 17 17 17 18 19 19 19 17 16 19 21 22 23 23 23 23
48 48 47 47 47 46 46 46 46 46 46 46 46 46 46 45 45 44 43 42 42 41 40 39 38 37 36 36 35 34 34 33 33 31 30 28 26 24 22 21 20 18 18 19 20 21 22 21 21 21 21 18 17 17 18 20 22 21 22 23 21 21 21 20 19 17 16 18 17 15 14 17 18 17 17 19 20 20 19 17 18 20 21 22 23 24 25 25
50 49 49 48 48 48 47 47 46 46 46 47 47 47 46 46 46 45 44 44 43 41 40 40 39 38 38 37 36 35 35 34 34 32 31 30 27 25 24 22 20 19 18 19 20 22 22 22 22 23 24 20 17 18 18 19 22 22 22 24 22 23 23 21 19 16 16 18 20 20 19 18 19 19 18 18 18 19 19 19 20 21 23 26 27 27 28 27
51 51 50 50 50 49 49 48 48 47 47 47 47 47 47 47 47 46 46 44 43 42 41 41 40 39 38 38 37 36 36 35 34 33 33 32 29 26 25 23 21 20 19 19 21 23 24 23 23 24 24 21 18 19 18 17 20 21 21 21 20 20 20 18 17 15 16 16 17 21 22 21 21 21 19 16 16 18 19 19 22 25 29 30 30 29 27 26
51 52 52 51 51 51 50 50 50 49 49 49 48 48 48 48 48 47 46 45 44 43 41 41 40 39 38 37 37 37 36 35 34 34 34 34 31 27 27 25 23 21 20 20 22 24 25 25 24 25 24 22 20 20 19 17 19 21 21 21 18 16 17 17 16 15 15 17 17 20 21 22 22 20 18 16 18 20 22 22 23 27 31 30 28 26 24 24
51 52 52 52 52 52 51 51 51 51 50 50 50 50 49 49 49 48 47 46 44 43 41 40 40 39 37 36 36 36 35 34 34 34 35 35 32 28 28 27 25 23 21 21 22 26 27 26 25 25 25 23 23 22 21 20 22 22 22 24 20 16 18 19 19 15 15 18 19 20 21 22 22 20 19 20 21 23 25 26 27 28 29 27 26 26 25 25
49 50 51 51 52 52 52 52 51 51 51 51 51 51 50 50 49 49 47 46 44 43 41 40 39 38 36 35 34 34 34 33 33 34 35 35 32 29 29 28 26 24 23 22 23 26 29 28 26 26 26 24 23 24 25 24 25 25 25 27 24 19 21 21 21 18 16 17 18 21 23 24 23 22 21 21 23 25 27 28 30 30 28 26 27 27 26 24
47 48 49 50 50 50 51 51 51 51 50 50 51 50 50 50 49 49 47 46 45 43 42 40 39 37 36 35 32 32 34 32 33 34 34 34 32 29 29 29 28 26 24 23 24 27 29 29 27 26 27 26 24 26 27 27 28 28 29 30 28 27 27 24 23 22 20 18 19 21 24 26 25 25 23 21 21 24 26 27 28 27 26 28 30 27 21 19
45 46 47 48 48 49 49 49 50 50 49 49 49 49 49 48 48 48 47 46 45 44 42 40 39 38 37 34 31 32 34 32 33 33 33 34 32 29 30 30 29 28 26 25 25 28 30 29 28 28 28 28 28 29 30 30 31 32 32 31 29 31 31 28 25 25 25 23 21 21 22 25 27 26 25 24 24 25 26 27 27 26 26 29 32 27 20 19
44 44 44 45 46 46 47 48 48 48 48 48 48 48 47 47 47 47 46 45 44 44 42 41 40 39 38 34 31 33 34 32 32 32 33 33 31 29 29 30 30 29 28 26 27 29 31 30 29 29 29 30 31 32 32 31 32 34 34 32 30 31 32 30 26 25 27 27 25 23 22 24 25 26 27 28 29 29 30 30 29 27 28 31 32 27 22 21
44 44 44 44 44 44 45 46 46 47 47 47 47 47 47 46 46 45 45 44 44 43 42 42 41 41 39 34 32 35 36 32 31 32 32 32 30 29 29 30 31 31 30 28 28 30 32 31 31 31 30 30 32 34 34 34 33 34 35 34 33 33 33 32 29 26 27 29 28 25 24 24 25 26 28 30 30 31 32 31 30 30 30 31 30 27 23 21
46 46 45 45 45 45 45 45 45 46 46 46 46 46 46 46 45 45 44 43 43 42 43 43 42 41 39 34 34 37 36 31 30 32 33 32 31 29 30 30 31 32 32 30 30 32 33 31 31 31 32 32 32 34 37 38 37 34 35 35 33 34 35 33 31 28 28 30 30 28 25 25 27 28 29 29 29 30 30 29 29 30 29 28 27 26 23 19
47 47 47 46 46 46 46 47 47 47 47 47 47 47 47 46 46 45 44 44 43 43 43 43 43 42 40 36 36 38 35 30 30 33 34 33 32 31 31 30 32 34 33 32 31 33 36 34 30 29 33 36 34 34 38 40 38 35 34 33 32 33 33 33 32 30 29 30 31 31 29 27 29 30 28 27 27 27 27 28 27 27 26 26 26 25 22 19
47 47 47 47 47 47 47 48 48 48 49 49 49 49 49 49 48 48 47 46 46 44 44 44 43 43 41 39 37 37 36 33 32 34 35 34 33 32 31 30 33 35 35 34 33 34 38 37 33 31 33 36 36 35 36 37 38 36 34 34 33 32 31 30 30 29 29 29 29 29 29 27 29 30 27 24 25 26 26 26 25 24 23 24 24 24 22 22
45 45 46 46 46 46 46 47 47 48 48 49 50 50 51 51 51 50 50 50 49 47 46 46 45 45 43 41 38 38 37 34 34 36 36 35 33 32 31 31 33 35 36 36 34 35 39 40 37 35 34 35 34 34 34 35 36 37 34 32 33 32 31 29 27 26 27 27 25 24 25 26 27 28 27 26 27 26 24 23 23 22 22 22 22 22 22 23
37 37 38 38 38 38 38 39 40 41 42 43 45 46 48 49 51 51 52 52 51 50 49 49 49 48 45 43 40 39 38 35 36 38 37 35 34 33 32 32 34 36 37 36 35 36 40 42 39 36 35 35 33 33 35 35 35 35 33 31 31 31 32 30 28 27 26 25 23 23 24 26 28 28 28 29 29 26 23 21 22 22 22 21 21 21 21 21
27 27 27 27 27 27 27 27 28 29 30 32 35 36 39 42 45 47 50 52 52 52 51 52 53 51 48 46 43 40 39 37 38 39 38 37 36 35 34 33 35 35 36 36 36 37 41 43 41 37 36 36 34 35 37 37 35 33 32 31 31 31 32 32 30 30 29 28 27 28 29 29 29 29 30 30 29 26 23 23 23 22 21 21 22 22 21 19
22 22 22 22 21 21 21 21 21 22 22 24 27 29 32 36 37 40 45 48 50 51 52 53 55 54 50 49 45 42 41 40 41 42 41 39 39 39 37 36 35 34 34 37 37 38 41 43 42 40 37 36 37 37 38 38 36 34 33 32 30 31 33 35 34 33 32 32 31 31 30 30 29 27 28 28 27 25 23 23 23 24 24 23 23 23 21 18
21 21 21 21 21 20 20 20 20 20 20 22 25 26 30 33 34 37 41 45 46 48 50 52 55 54 52 51 49 46 45 44 44 44 43 42 42 41 39 37 36 34 35 38 39 39 40 43 44 41 38 38 38 38 37 37 35 35 33 32 31 30 32 36 39 38 36 35 34 31 28 28 28 26 26 26 26 25 24 23 24 26 27 26 25 24 22 21
22 22 22 22 22 21 21 21 21 22 23 23 25 26 28 30 32 35 39 41 43 45 47 49 51 52 52 52 50 49 49 47 47 47 45 45 44 42 41 40 37 36 37 39 40 39 40 43 45 43 41 40 41 41 40 38 34 34 34 33 33 32 31 34 38 41 40 38 36 33 28 26 27 27 26 25 25 25 25 25 26 27 28 27 26 24 24 24
24 24 24 24 24 23 23 23 24 25 25 26 26 26 28 28 29 33 36 39 40 42 44 46 49 50 49 48 49 52 52 50 50 49 48 46 45 43 43 41 40 40 40 40 41 40 40 44 46 45 43 42 43 44 44 40 35 34 33 33 33 32 32 33 34 38 41 41 38 34 29 27 27 28 28 26 25 25 25 26 26 26 26 25 24 25 25 25
26 26 26 26 27 26 25 25 26 27 27 27 27 27 28 27 29 32 35 38 39 39 42 44 46 46 44 44 48 52 52 52 53 52 49 48 46 44 44 44 44 44 42 41 42 41 42 45 47 46 45 44 43 45 45 41 36 34 32 31 32 31 33 34 34 35 38 40 39 36 32 29 28 29 29 29 27 26 26 27 26 26 26 26 26 25 24 22
29 29 29 29 29 28 27 27 28 29 28 28 28 28 28 28 30 33 35 38 37 37 41 43 43 42 40 40 44 47 50 54 55 53 50 50 48 47 47 47 48 47 45 43 43 44 45 46 47 46 46 46 46 47 45 42 39 36 33 32 32 32 33 34 34 34 34 35 36 36 33 31 31 30 30 30 29 28 28 28 28 27 27 26 25 23 21 20
31 31 32 32 31 30 30 30 31 30 29 28 28 28 28 28 30 32 34 37 36 37 40 41 40 39 37 38 41 45 50 54 55 52 52 53 51 49 49 49 50 49 47 45 46 46 46 47 48 46 46 47 48 47 46 44 42 39 36 35 34 33 34 34 34 33 31 31 33 34 34 33 33 32 31 30 29 29 29 28 27 25 23 22 21 21 21 20
34 35 35 34 33 32 32 32 32 31 30 29 28 28 28 27 28 30 33 36 37 38 39 38 38 37 36 38 41 44 47 51 52 52 53 54 52 51 50 50 51 49 48 48 48 47 47 47 48 48 48 48 47 47 46 45 44 41 40 38 36 35 34 34 36 36 34 33 32 33 34 35 34 32 30 29 29 28 27 25 24 22 20 19 20 22 22 22
33 35 36 35 34 34 33 33 33 32 30 28 27 27 26 25 27 29 32 34 37 38 37 36 35 35 35 36 38 41 43 48 50 49 51 54 53 52 51 50 50 48 48 50 49 48 49 48 49 51 50 48 47 47 48 47 45 43 40 40 40 38 36 35 36 37 37 37 35 34 35 35 35 32 30 29 28 26 25 24 23 22 22 23 23 24 24 24
27 30 33 34 34 34 34 34 33 32 29 27 26 25 23 23 25 28 30 34 38 39 37 36 35 34 35 35 36 38 40 44 46 46 50 54 54 53 52 50 49 48 47 50 52 51 50 50 51 52 51 49 48 48 48 47 46 43 40 40 41 37 36 36 36 36 37 39 39 38 37 37 36 34 32 31 30 28 27 26 25 24 24 26 26 26 26 27
23 25 28 30 32 32 32 33 32 30 27 26 25 23 21 21 23 26 30 35 39 40 38 35 34 34 34 34 35 37 38 41 44 45 48 53 55 54 53 52 51 50 50 52 55 53 52 52 52 52 50 50 50 49 47 46 45 43 42 42 39 36 36 37 37 37 37 38 39 40 40 40 40 38 37 36 34 33 32 30 29 27 27 27 26 26 26 28
21 23 24 26 28 29 29 30 29 27 25 24 22 21 20 20 21 23 27 33 37 38 36 34 32 32 33 34 35 36 37 40 42 44 48 52 55 56 55 54 54 53 53 55 56 54 52 52 52 51 51 51 51 50 47 45 43 43 44 43 39 37 36 36 39 40 39 39 39 39 40 40 41 42 41 39 36 34 34 33 31 30 29 28 27 27 28 28
20 21 22 23 25 26 26 26 26 24 23 22 21 20 19 18 18 19 23 28 33 35 34 33 31 31 32 33 35 36 37 39 41 43 47 51 53 55 55 55 54 54 54 55 55 54 53 52 52 52 52 52 51 50 48 45 44 44 45 43 39 37 37 37 39 41 40 40 40 40 39 38 39 40 40 40 38 34 33 33 32 31 31 31 31 31 31 30
19 19 20 21 22 23 23 23 23 23 22 21 21 19 17 16 15 17 19 25 32 34 34 33 32 31 30 31 33 36 37 38 40 42 45 49 52 55 56 56 55 55 54 54 55 55 54 54 54 54 53 52 51 50 49 46 44 44 44 41 39 40 40 39 39 39 40 41 41 40 40 39 39 39 39 38 38 35 32 32 31 31 31 32 33 33 33 32
17 18 18 18 20 21 21 22 22 22 21 21 20 17 16 15 14 15 17 25 32 34 35 35 33 31 30 30 33 35 37 38 39 40 43 47 51 55 57 57 56 56 54 54 56 56 56 56 56 55 54 52 51 50 49 46 44 44 43 41 41 42 41 40 38 38 39 41 41 41 41 40 40 39 39 38 37 36 33 32 31 31 32 33 33 34 34 34
17 17 17 16 17 19 21 21 21 22 22 21 19 16 16 16 16 14 17 24 28 31 34 35 34 34 34 33 33 35 35 36 38 39 43 46 50 54 57 58 57 56 55 55 56 57 57 56 56 55 53 52 51 50 48 47 46 45 44 44 43 41 39 39 37 36 38 40 40 41 42 41 40 40 39 38 37 36 35 34 34 34 34 34 34 35 35 35
17 17 16 16 16 18 20 21 21 22 22 21 18 17 16 17 17 16 17 21 24 27 31 34 36 37 36 34 33 33 34 34 37 40 42 46 50 53 57 58 57 57 57 56 57 57 57 57 56 55 54 53 52 50 48 47 47 45 46 45 42 40 39 38 37 36 37 38 39 40 41 42 42 40 39 38 36 35 36 37 37 37 37 35 35 35 35 35
19 18 16 16 16 17 19 21 21 22 22 21 19 18 18 18 19 19 17 20 23 25 29 34 38 37 35 33 31 30 31 32 35 39 42 45 49 53 56 58 58 58 58 57 57 58 58 57 57 56 56 54 52 50 49 47 46 46 47 45 42 40 39 38 37 36 37 37 37 38 40 41 41 39 38 36 35 34 35 37 37 38 38 35 33 33 33 34
20 19 18 16 16 16 18 20 21 22 22 21 20 19 19 20 21 21 20 21 23 25 31 36 39 38 37 36 32 29 29 30 33 38 41 44 48 52 55 57 58 59 59 58 58 59 59 58 58 57 55 53 52 52 50 48 46 46 46 44 42 42 41 41 40 38 37 38 37 38 39 39 39 37 35 34 34 35 35 35 37 38 37 35 32 30 31 33
20 20 19 18 16 17 18 19 21 22 22 22 21 20 20 21 23 22 21 21 23 27 33 37 39 39 39 36 33 31 30 30 32 36 41 43 47 51 54 56 59 61 60 59 59 59 59 59 58 57 55 53 54 54 52 49 48 46 45 44 44 44 43 43 41 38 39 38 38 39 38 36 36 35 33 33 34 35 35 35 37 37 36 34 32 30 31 33
21 21 20 19 18 18 18 18 20 21 22 23 22 21 21 21 23 24 22 21 24 28 31 35 38 39 40 36 31 30 30 30 32 36 41 44 47 51 54 57 60 62 61 59 59 59 60 61 59 57 56 55 55 54 53 52 50 48 47 47 46 45 44 43 43 42 41 38 38 39 38 36 35 32 30 31 33 33 35 36 37 36 36 34 33 32 32 33
23 22 22 21 20 19 18 18 19 20 22 23 23 22 22 21 22 24 22 23 26 28 31 35 39 41 41 37 32 31 33 33 34 36 41 46 50 53 55 58 61 62 62 61 60 60 61 61 59 58 56 56 56 56 55 54 53 50 49 48 47 46 44 45 45 43 40 39 40 41 39 38 35 31 30 32 32 34 36 38 38 37 36 34 32 32 31 31
25 24 24 23 21 19 18 18 19 20 21 23 23 22 22 22 22 23 23 24 27 30 32 36 40 43 42 39 36 36 35 33 34 36 39 44 50 53 55 57 60 62 63 63 62 61 61 62 61 59 58 57 57 58 57 55 54 52 51 51 50 48 48 47 47 44 42 42 43 41 40 39 34 29 28 30 32 34 36 37 37 36 35 34 32 31 30 30
28 26 24 23 22 21 20 19 18 19 21 22 22 23 23 21 22 23 23 23 27 30 31 33 36 39 40 40 38 36 34 33 35 37 39 43 49 53 56 57 59 62 64 65 64 63 62 63 62 61 60 58 58 59 59 57 55 54 54 53 53 52 50 49 48 45 44 44 43 42 41 38 33 28 26 26 29 33 36 36 35 34 33 33 31 29 28 30
30 28 26 25 24 23 22 20 19 19 20 21 22 23 22 21 21 22 22 23 25 26 25 26 31 35 37 38 38 36 35 35 37 39 41 44 49 54 57 58 59 63 66 67 66 64 63 63 62 61 60 59 61 62 61 58 56 55 55 54 54 53 51 50 48 45 45 44 43 43 41 37 33 29 25 24 28 33 36 35 33 31 30 29 27 26 26 27
33 31 29 27 26 24 23 21 20 19 20 20 21 23 22 20 21 22 21 22 21 20 19 21 27 32 34 36 37 37 37 38 40 42 44 47 50 52 55 57 59 62 66 68 66 63 63 62 61 60 60 60 62 62 61 60 57 54 54 56 56 54 52 51 48 46 45 45 45 45 41 38 36 30 26 27 30 34 36 34 31 30 29 27 26 25 25 26
36 33 31 30 28 26 25 23 21 20 20 20 21 22 21 20 20 20 20 20 17 17 20 23 27 31 34 35 37 36 36 37 39 41 44 47 49 50 53 57 58 60 62 64 63 64 65 64 62 61 60 61 62 62 61 61 60 58 56 56 57 55 53 50 48 48 47 47 47 46 43 41 38 32 30 31 32 33 35 33 31 31 30 28 27 26 25 25
38 36 34 33 30 28 26 25 23 21 20 20 21 21 21 21 20 19 19 18 15 17 22 25 28 31 33 35 35 34 33 33 36 39 42 45 47 49 53 56 58 60 59 61 65 68 67 66 65 64 63 62 63 63 62 62 62 62 60 58 57 55 53 50 49 49 49 48 48 47 44 43 40 35 34 33 33 35 36 34 33 32 29 28 28 26 25 24
40 39 37 35 33 30 28 26 24 23 21 20 20 20 21 21 21 18 18 17 15 17 20 22 25 26 27 29 28 26 26 28 32 35 39 42 45 48 51 52 55 59 60 63 69 70 67 66 65 66 66 65 63 63 62 62 62 62 61 59 57 55 53 50 48 49 49 48 49 48 46 45 43 39 36 35 34 35 35 35 34 32 31 30 29 27 26 26
42 41 40 38 35 32 30 28 26 24 22 20 20 21 21 21 20 18 16 15 13 14 16 18 22 23 25 26 24 23 24 27 29 32 36 39 42 44 48 49 52 56 60 64 66 65 64 64 63 63 64 65 65 64 63 62 60 59 59 59 58 57 55 53 52 51 51 51 51 51 48 47 45 40 36 35 34 35 35 36 36 34 33 33 32 29 28 29
43 43 42 40 37 35 32 30 28 26 24 23 22 23 22 22 21 18 16 14 11 12 14 17 20 23 24 25 24 24 26 26 28 32 35 37 38 40 45 48 51 55 59 60 60 59 60 61 60 60 62 63 64 64 63 62 60 59 59 60 60 59 58 57 55 55 55 54 54 51 48 46 43 38 35 36 37 36 36 36 37 37 37 37 37 35 32 32
Wind_Direction
260 260 260 260 259 259 260 260 260 259 260 260 261 261 262 262 262 263 263 264 264 265 265 265 265 265 265 265 266 266 267 267 267 267 267 266 266 265 264 262 259 256 253 251 250 249 249 248 249 247 236 219 202 197 195 193 190 214 220 196 187 188 186 183 177 173 190 209 212 221 236 243 232 212 208 215 224 231 232 232 228 233 244 252 262 268 272 280
260 260 260 260 260 259 259 259 259 259 259 259 259 259 259 259 260 260 261 261 262 262 262 262 262 262 262 262 263 263 264 264 265 264 264 264 264 263 262 260 256 253 249 246 245 244 243 242 243 242 228 212 202 201 198 197 191 201 213 198 186 184 182 186 182 174 189 210 219 229 233 224 231 225 213 215 224 231 229 225 223 233 248 259 268 271 273 283
261 261 260 260 260 259 259 259 258 258 258 258 258 258 258 258 258 258 259 259 260 260 261 260 260 260 260 260 261 261 262 262 262 262 262 262 262 261 260 257 254 250 246 241 240 238 237 235 235 234 222 210 206 207 205 200 198 203 206 196 187 180 179 186 184 181 196 219 225 234 228 216 225 217 205 212 218 221 224 225 226 234 247 258 264 269 276 289
262 261 261 260 260 259 259 258 258 258 257 257 257 257 257 257 257 257 258 258 258 259 259 259 259 259 259 259 259 259 260 260 260 260 260 260 259 259 258 255 251 247 244 238 234 231 232 229 228 226 216 207 207 213 213 209 209 208 203 196 189 183 185 188 186 191 204 221 232 238 221 203 210 209 202 207 214 220 223 228 232 237 240 243 251 264 279 292
263 262 261 261 260 259 259 258 258 257 257 257 257 256 256 256 256 256 257 257 257 258 258 258 258 258 258 258 258 259 259 259 259 259 258 258 257 257 255 252 248 244 241 237 230 225 225 224 222 218 210 205 209 217 216 211 211 207 203 202 195 191 193 194 195 201 205 215 230 237 214 196 203 213 211 209 217 226 226 228 235 241 240 241 250 265 282 292
264 263 262 261 260 259 259 258 258 257 257 257 256 256 256 256 256 256 256 256 256 257 257 257 257 257 257 257 258 258 258 258 258 258 257 256 254 253 253 250 246 241 238 235 228 220 219 220 218 212 206 207 212 217 213 206 206 205 205 203 200 199 199 202 205 205 210 217 221 223 212 202 208 218 221 218 219 225 229 232 235 242 248 252 258 267 278 286
264 264 263 262 261 260 259 258 258 257 257 257 256 256 256 256 256 256 256 256 256 256 257 257 257 257 257 257 257 257 257 256 257 257 257 255 252 250 250 249 244 239 235 232 226 218 216 217 217 211 206 207 209 211 208 200 200 202 204 204 203 204 205 209 211 216 229 227 217 215 216 213 216 224 228 225 221 224 233 237 238 242 252 258 263 268 276 287
264 264 264 263 262 261 260 259 258 257 257 257 256 256 256 256 256 256 256 256 256 256 256 257 258 257 257 257 257 256 255 255 255 255 255 253 250 248 247 246 243 238 232 229 223 216 213 214 217 211 206 208 205 205 203 197 200 199 197 197 196 198 202 208 213 227 242 237 220 212 215 219 222 227 227 225 226 232 236 239 244 247 252 257 263 271 280 290
265 264 263 263 262 261 261 260 259 258 257 257 257 256 256 256 256 257 257 257 256 256 256 256 257 257 256 256 255 254 253 253 252 252 252 251 248 245 244 243 241 237 231 227 221 214 210 211 215 210 208 211 204 201 202 203 206 199 191 185 179 184 193 205 216 225 231 233 230 218 213 218 223 225 224 224 226 233 236 237 242 248 256 261 269 278 284 290
264 264 263 263 262 262 261 260 260 259 258 258 257 257 257 257 257 257 257 257 257 256 256 256 256 256 255 254 253 252 251 250 249 248 248 249 246 242 241 240 239 236 230 226 219 212 209 208 211 210 208 211 206 201 200 208 207 194 188 178 169 182 200 215 221 215 215 223 227 225 219 218 222 221 222 228 227 230 234 236 238 244 253 263 272 277 278 284
264 264 264 264 263 263 262 261 261 260 259 259 259 258 258 258 258 258 258 258 257 257 256 256 255 255 254 252 250 250 248 246 246 245 245 246 244 238 238 237 236 235 229 226 220 212 209 207 209 208 205 207 210 206 201 206 204 191 183 174 171 191 209 220 221 208 208 215 216 220 223 224 224 219 220 230 233 236 240 239 238 242 251 261 268 271 275 280
262 262 263 263 263 263 263 262 262 262 261 260 260 260 259 259 259 259 259 259 258 257 255 254 254 254 252 249 247 248 246 243 242 243 243 244 242 236 234 233 232 233 228 225 221 213 209 207 207 207 204 204 208 209 205 203 201 192 184 181 185 198 207 219 221 212 208 214 219 220 223 226 227 223 220 224 230 236 243 244 244 250 260 265 265 271 278 276
261 261 261 261 261 262 262 262 262 262 262 261 261 260 260 259 259 259 259 258 257 256 255 254 253 252 251 247 245 247 245 241 240 241 241 242 240 235 232 230 228 229 227 223 220 214 209 207 207 206 206 208 206 206 206 202 200 196 192 197 204 206 210 219 225 222 216 216 224 229 230 229 229 228 226 226 226 228 237 246 253 258 264 266 265 270 274 271
260 260 260 260 260 260 260 261 261 261 261 261 261 260 260 259 259 259 258 258 257 256 255 254 252 251 250 246 244 247 244 239 238 238 239 241 239 234 230 228 225 225 225 222 218 213 209 206 207 208 209 213 212 209 206 203 201 200 201 207 215 214 215 222 227 231 226 223 226 231 236 236 236 237 238 238 236 237 244 251 256 258 260 263 265 266 267 270
261 261 260 260 260 260 260 260 260 260 260 260 260 260 260 260 259 259 259 258 257 256 255 253 252 251 248 244 244 247 243 236 236 237 238 239 238 234 230 226 223 222 223 220 217 212 207 207 209 209 211 214 218 216 210 204 203 204 206 210 216 218 221 225 231 236 233 229 227 228 232 237 241 243 246 247 245 246 250 255 256 257 258 259 261 262 266 272
262 262 261 261 261 261 260 260 260 260 260 260 260 260 260 260 260 259 259 258 257 255 254 253 251 250 247 243 243 245 242 234 233 236 237 236 235 231 228 225 221 220 221 219 216 210 204 206 211 212 213 214 217 221 217 209 205 206 209 213 218 221 225 230 234 236 236 233 229 226 226 229 233 235 238 242 243 245 248 251 254 253 253 253 254 258 264 270
263 262 262 262 261 261 261 261 261 260 261 261 260 260 260 260 259 258 258 257 256 254 253 252 251 249 246 242 241 243 242 234 229 233 234 232 231 228 225 222 220 219 219 218 214 210 203 202 210 215 216 215 215 221 223 216 210 210 214 219 222 224 227 232 234 234 234 233 230 226 223 223 225 228 232 236 240 242 244 246 249 249 247 247 252 257 259 263
262 262 262 262 262 262 261 261 261 261 261 260 260 260 260 259 258 258 257 256 254 253 252 251 250 249 246 241 239 240 239 233 227 229 231 230 228 228 225 220 219 217 217 217 213 209 204 202 208 216 218 217 218 223 228 224 217 217 220 224 227 228 229 230 231 232 230 228 229 229 227 226 223 223 227 230 234 239 241 243 246 247 245 247 254 256 255 259
261 262 262 262 262 262 262 262 262 261 261 261 260 260 259 259 258 257 256 255 254 252 251 251 249 247 245 241 237 236 236 232 229 229 229 229 227 226 225 220 219 217 215 216 213 209 205 203 208 216 220 219 219 224 229 229 224 221 223 226 228 229 229 225 222 225 227 227 229 230 231 230 224 221 222 224 230 238 243 245 247 249 250 252 256 258 258 261
260 260 260 260 261 261 261 261 262 262 262 262 261 261 260 259 258 257 256 254 253 252 251 250 249 246 244 242 237 234 234 232 232 231 227 227 227 226 224 221 220 218 215 215 214 210 207 205 207 213 220 219 218 224 227 229 228 224 224 224 224 225 224 221 215 214 219 223 223 222 225 228 227 226 228 230 235 241 242 243 248 252 254 256 258 261 264 265
258 258 258 258 258 259 260 261 263 264 265 265 265 263 261 260 258 256 255 254 253 251 250 249 247 245 243 242 237 233 232 230 232 233 227 223 224 224 222 220 221 219 216 215 215 212 208 206 207 211 217 218 218 223 227 229 228 226 225 223 222 221 220 217 212 211 215 217 216 218 223 228 230 230 232 234 237 239 239 240 245 250 253 256 259 260 262 267
254 254 254 254 255 256 258 261 265 269 272 272 271 268 264 261 258 256 254 253 251 250 249 248 247 244 242 241 238 233 231 230 230 231 228 222 220 222 221 219 220 219 216 216 215 214 209 206 207 210 214 217 220 224 228 230 229 226 225 224 223 222 219 216 213 213 216 218 220 223 227 233 234 231 231 233 235 236 239 242 244 246 247 248 251 253 259 271
250 250 250 251 252 254 257 261 267 272 276 278 277 274 268 263 258 254 252 250 249 248 248 247 246 244 242 241 238 234 232 230 230 228 227 224 220 220 220 219 219 217 216 216 216 214 210 207 208 211 213 216 221 225 229 230 230 229 226 224 225 225 222 219 218 218 220 222 226 228 230 235 238 234 232 233 233 235 238 242 243 243 244 246 249 254 264 276
247 248 249 251 253 255 259 264 270 273 277 280 282 282 277 270 264 258 254 252 248 246 246 246 246 243 241 239 237 235 232 230 229 227 225 224 222 220 219 219 218 217 216 216 215 214 210 208 209 211 213 216 220 223 226 227 228 228 227 226 228 228 228 226 223 223 223 225 228 232 231 232 236 237 236 235 234 236 238 240 242 242 244 248 252 259 268 277
246 248 250 253 256 259 263 268 271 274 277 280 285 288 283 276 268 260 256 253 249 246 245 245 245 243 240 238 237 234 232 229 228 227 224 224 222 220 219 218 218 217 217 216 215 212 208 208 210 212 214 218 221 224 226 225 224 226 227 229 232 235 236 235 233 230 227 227 229 232 232 228 230 233 235 235 235 236 237 239 240 241 245 249 256 265 273 278
248 250 253 256 258 262 266 269 272 274 277 280 285 288 284 274 263 255 251 250 247 243 244 244 244 242 239 237 235 234 232 229 227 226 224 223 221 219 218 217 217 217 217 216 215 212 209 208 210 213 216 219 221 225 227 226 225 224 225 228 232 236 239 239 239 236 232 230 229 230 229 226 226 230 234 237 239 239 237 237 237 240 246 255 263 270 273 274
250 252 254 257 259 263 266 269 272 274 278 282 285 288 283 273 261 254 248 246 242 239 241 242 243 241 237 235 235 233 231 228 226 224 223 222 220 218 216 215 216 217 216 215 214 212 210 210 210 213 217 219 221 225 227 225 225 224 222 225 228 231 236 238 237 235 233 231 229 227 226 225 226 230 234 237 238 239 238 238 240 245 253 262 267 269 268 266
251 253 255 256 260 263 266 269 271 275 280 282 285 286 282 272 263 256 249 244 238 234 236 239 240 239 236 233 232 230 229 227 224 222 222 221 219 217 216 215 216 216 215 215 215 213 212 212 212 214 218 220 221 225 227 226 225 224 221 223 225 226 231 234 231 228 227 228 228 227 225 225 228 231 235 237 237 237 238 241 246 251 258 265 267 265 263 262
253 254 255 257 260 263 266 269 271 275 279 281 283 286 281 271 261 253 247 242 236 232 234 238 238 237 234 231 230 230 229 227 224 220 221 221 218 216 216 216 216 216 216 216 216 213 213 214 214 215 218 220 221 223 227 228 227 226 223 222 223 224 224 228 228 224 221 222 225 226 226 226 228 230 234 237 238 237 239 243 247 252 257 259 258 258 260 261
256 255 256 258 260 262 265 268 271 275 277 279 283 286 282 272 260 251 243 237 233 231 233 236 236 235 233 232 231 231 229 227 223 219 219 220 218 216 215 215 216 215 216 218 217 214 213 214 214 216 219 220 221 222 226 228 228 228 226 224 224 224 221 222 226 225 222 222 223 224 226 226 228 231 235 237 238 238 241 245 249 253 255 254 252 253 257 260
261 259 258 258 259 262 264 267 270 273 275 278 282 285 282 272 261 251 241 232 228 229 230 233 233 232 232 231 231 231 229 228 224 218 217 219 217 215 214 214 214 213 214 218 218 215 213 214 216 217 218 220 222 223 226 228 229 230 229 227 227 225 221 220 223 224 223 224 225 225 226 227 229 233 239 242 244 245 247 250 253 255 257 256 256 257 259 259
268 265 262 260 260 261 263 266 268 270 273 275 281 286 282 273 265 255 240 229 227 230 230 231 231 231 231 231 230 230 228 227 224 217 215 217 215 213 212 211 211 210 211 216 218 216 214 215 217 218 218 220 222 224 226 227 229 229 229 229 229 226 222 221 222 224 224 226 227 228 228 230 232 235 239 244 248 250 249 250 252 254 256 258 259 258 257 257
274 271 267 263 260 260 261 264 266 267 270 273 280 285 283 282 277 261 244 235 232 233 233 232 231 231 232 232 231 230 228 227 224 217 214 215 214 212 210 210 210 209 210 214 217 216 215 216 217 218 218 219 222 224 224 225 227 228 229 229 228 227 224 222 223 224 223 225 228 229 229 230 233 235 238 241 244 246 247 248 248 249 251 251 251 251 251 252
278 276 273 267 261 259 259 261 262 264 267 272 277 283 292 303 297 274 257 245 237 236 236 236 235 234 234 235 234 231 227 226 224 218 213 214 214 212 210 210 210 209 210 213 216 216 215 216 217 218 218 219 221 223 223 223 225 227 228 230 229 229 226 224 225 226 225 225 227 230 230 231 233 235 237 239 239 239 242 244 244 245 244 242 243 245 247 250
283 281 277 269 262 258 256 257 259 261 266 270 275 285 302 316 307 287 268 246 234 233 235 237 239 239 238 238 237 233 228 225 224 219 214 212 213 212 209 208 209 209 209 212 215 215 214 215 216 217 217 218 219 221 222 222 224 226 229 231 231 230 227 226 228 229 227 227 228 230 231 231 232 235 236 238 238 236 237 239 240 240 240 240 243 246 248 250
290 286 281 272 263 257 255 255 258 261 265 268 275 289 304 312 307 291 264 241 233 232 232 234 237 240 239 238 238 235 229 225 223 219 214 212 212 212 210 207 208 208 208 211 214 214 214 215 216 216 217 218 218 219 221 221 222 224 226 228 229 230 230 230 232 233 231 230 229 230 232 232 233 235 237 239 240 239 237 236 236 236 239 242 245 249 252 253
300 292 286 277 266 258 254 255 258 261 264 269 277 289 300 309 312 296 262 245 239 234 231 232 234 236 235 232 233 233 229 224 221 218 215 212 211 213 211 207 207 208 207 209 212 213 214 214 215 216 216 216 217 218 220 221 222 223 225 226 229 231 232 232 234 235 235 234 232 232 233 234 235 237 240 241 243 243 242 238 236 236 238 242 246 250 255 259
307 301 294 283 272 263 258 257 259 262 266 271 278 287 298 308 310 298 271 254 248 240 233 230 233 235 234 231 230 232 230 224 220 217 214 212 211 212 211 207 206 208 207 208 211 213 213 214 215 215 215 215 215 215 217 221 223 224 226 226 228 230 232 233 235 236 237 237 235 235 235 235 236 237 239 242 245 248 248 247 245 243 242 243 245 248 252 258
306 305 300 290 279 269 263 261 261 264 268 272 278 287 297 303 305 301 280 256 245 238 231 228 230 233 234 233 230 231 232 226 220 218 214 213 212 212 211 208 206 207 208 207 210 212 212 213 214 215 215 215 214 214 215 219 222 224 227 227 227 229 230 232 235 237 239 240 239 237 237 237 237 237 237 241 244 246 248 250 250 250 249 247 248 251 254 258
300 302 302 296 286 276 269 266 265 266 269 273 279 287 295 299 303 303 287 262 243 231 226 226 227 229 230 230 225 224 227 223 219 217 215 214 215 213 211 209 207 207 208 207 209 211 212 212 214 215 215 214 213 213 213 216 219 222 226 227 226 228 228 229 231 233 237 239 239 238 237 237 238 237 236 238 240 242 244 248 251 252 253 253 253 257 259 260
293 296 298 297 291 282 274 269 267 267 269 273 277 283 291 296 301 303 292 269 245 229 224 224 225 226 228 228 224 221 222 219 216 216 214 213 216 216 212 209 209 208 207 208 209 210 211 212 213 214 214 213 213 213 212 214 217 220 224 225 226 228 229 230 231 233 235 236 237 238 237 237 239 239 238 237 238 240 242 246 250 252 254 255 255 257 257 257
285 288 290 292 291 287 282 275 271 270 270 271 273 278 285 291 299 303 293 268 244 231 226 224 223 225 228 227 222 220 220 218 213 213 212 212 214 217 214 210 209 209 207 208 209 209 211 212 212 212 213 212 214 214 213 213 216 219 222 225 227 229 231 232 232 233 234 235 236 238 237 236 236 237 239 240 239 239 240 243 247 250 253 254 254 254 255 255
275 279 282 285 289 294 292 283 275 272 270 271 272 276 282 287 298 302 288 265 246 232 224 222 220 222 226 226 221 217 217 217 214 211 212 212 212 215 215 211 209 209 208 208 209 209 210 212 211 211 212 212 213 214 213 214 216 219 222 225 227 229 231 233 234 235 237 237 237 237 236 236 234 231 232 236 238 239 239 242 244 246 249 252 253 253 255 257
268 271 276 282 287 291 291 284 278 273 271 271 272 275 279 285 296 299 286 267 249 233 226 224 220 219 221 222 220 218 216 216 217 215 213 215 215 216 217 214 209 209 209 208 209 209 210 211 210 210 211 212 212 214 214 214 217 220 222 224 226 227 229 232 234 235 237 239 240 240 239 239 238 234 231 232 237 240 241 242 243 244 246 248 251 252 253 255
263 266 271 276 279 281 283 285 284 278 272 272 272 273 276 283 293 297 288 272 255 243 238 232 223 220 221 221 221 220 217 217 219 218 216 217 216 215 217 216 211 209 210 210 209 209 209 211 210 209 210 211 212 214 214 214 217 220 221 223 226 227 230 233 235 235 237 239 242 243 242 241 241 239 237 234 235 239 243 244 244 245 246 247 249 248 244 244
259 261 264 267 271 275 279 284 285 280 275 274 273 272 274 280 290 296 290 275 261 253 248 236 224 221 221 222 222 220 218 218 220 221 220 220 218 215 215 216 213 209 210 211 209 208 210 211 211 210 210 211 213 214 214 214 217 221 222 223 225 228 230 233 236 237 239 241 243 244 245 245 244 242 241 240 237 239 244 247 249 249 248 247 247 245 241 237
255 256 259 262 265 269 273 277 280 281 279 277 273 272 274 278 286 295 293 283 269 254 243 233 224 220 220 222 222 220 218 219 219 220 221 221 220 216 214 216 215 212 211 211 209 209 210 211 211 211 211 212 215 216 215 215 216 220 224 225 226 228 229 232 235 238 239 240 242 243 244 245 243 240 239 239 238 239 244 248 251 254 254 253 251 248 243 239
252 253 255 257 260 263 267 271 275 279 281 277 273 272 274 276 283 293 295 290 275 248 234 229 222 218 218 220 222 222 221 221 221 222 223 223 221 217 214 214 216 215 213 212 211 211 211 210 209 210 211 213 216 216 216 216 217 219 222 225 227 229 230 231 234 237 238 239 240 242 243 244 244 240 238 239 240 242 245 248 249 250 250 252 254 252 248 244
250 251 252 254 256 259 262 266 270 275 278 278 277 275 275 276 280 290 297 293 273 244 234 231 225 221 220 221 223 223 222 224 226 226 227 226 223 219 216 213 214 215 211 210 212 213 211 210 208 208 209 212 215 217 217 218 219 220 223 226 228 231 232 233 235 239 240 240 242 244 244 246 246 242 239 240 242 245 248 249 250 250 251 254 257 258 255 251
248 249 249 251 253 255 258 262 265 269 274 279 280 276 273 274 277 286 298 297 277 251 239 235 232 230 230 232 232 232 231 231 233 233 232 230 225 221 218 215 215 215 211 209 212 212 211 211 211 210 210 210 213 216 218 220 222 223 226 228 230 232 234 236 238 242 244 245 246 246 245 246 246 243 241 242 245 249 253 255 256 258 259 260 259 257 255 255
247 247 248 248 250 252 254 257 261 265 270 274 274 270 267 267 271 278 289 294 282 261 245 236 234 234 234 234 235 237 237 236 236 237 237 235 228 222 219 215 215 217 215 212 212 213 213 213 212 212 214 214 214 214 215 218 222 225 228 230 232 233 235 235 236 237 240 242 243 244 243 244 246 247 247 248 249 251 255 260 263 265 266 266 264 258 254 255
244 246 246 246 247 249 251 253 256 260 264 266 268 269 267 265 267 271 278 286 280 258 242 234 232 231 230 230 231 234 236 235 235 235 234 232 227 222 218 215 213 216 219 216 211 211 214 216 215 214 216 217 218 218 216 216 218 223 226 229 231 233 234 235 236 236 237 238 240 242 243 245 248 249 248 250 251 252 254 259 264 267 270 272 271 266 262 260
Height
10939 10940 10941 10942 10943 10944 10945 10946 10947 10948 10949 10950 10951 10952 10953 10953 10954 10954 10955 10955 10956 10957 10958 10959 10959 10960 10960 10960 10960 10960 10960 10961 10961 10960 10961 10961 10962 10962 10963 10964 10966 10967 10968 10968 10968 10969 10969 10969 10970 10970 10971 10972 10974 10976 10977 10978 10979 10980 10980 10981 10982 10983 10985 10986 10987 10989 10990 10990 10991 10993 10993 10993 10993 10994 10994 10994 10995 10995 10996 10997 10997 10997 10997 10997 10996 10995 10994 10994
10934 10935 10936 10937 10938 10939 10940 10941 10942 10943 10945 10946 10947 10948 10948 10949 10950 10951 10951 10951 10952 10953 10954 10955 10956 10956 10957 10957 10957 10957 10957 10958 10958 10958 10958 10958 10959 10960 10960 10962 10963 10964 10965 10965 10966 10966 10967 10967 10968 10968 10969 10970 10972 10974 10975 10976 10977 10978 10978 10980 10981 10982 10983 10984 10985 10987 10988 10988 10989 10990 10991 10992 10992 10992 10992 10992 10993 10993 10994 10995 10996 10996 10996 10995 10995 10994 10993 10993
10930 10930 10931 10932 10933 10934 10935 10936 10937 10938 10939 10941 10942 10943 10944 10945 10946 10947 10947 10948 10948 10949 10950 10951 10952 10953 10954 10954 10954 10954 10955 10955 10955 10955 10955 10956 10957 10957 10958 10959 10960 10961 10962 10962 10963 10963 10964 10965 10966 10967 10967 10968 10970 10971 10972 10974 10975 10976 10977 10978 10980 10981 10982 10983 10985 10986 10986 10986 10987 10989 10991 10991 10991 10990 10990 10991 10991 10992 10992 10993 10994 10995 10995 10995 10994 10993 10993 10992
10925 10926 10926 10927 10928 10929 10930 10931 10932 10933 10934 10936 10937 10938 10939 10940 10941 10942 10943 10943 10944 10945 10946 10947 10949 10949 10950 10950 10951 10951 10952 10952 10952 10952 10953 10953 10954 10955 10955 10956 10958 10959 10959 10960 10960 10961 10961 10963 10964 10964 10965 10966 10967 10968 10970 10972 10973 10975 10976 10978 10979 10980 10981 10982 10983 10984 10983 10984 10986 10988 10990 10990 10989 10989 10989 10989 10990 10990 10991 10992 10994 10995 10995 10995 10994 10993 10992 10991
10920 10921 10921 10922 10923 10924 10925 10926 10927 10928 10929 10930 10932 10933 10934 10935 10937 10938 10938 10939 10940 10941 10942 10943 10944 10945 10946 10947 10947 10948 10948 10948 10948 10949 10950 10951 10952 10952 10952 10954 10955 10956 10957 10957 10958 10958 10959 10960 10961 10962 10963 10964 10965 10966 10968 10970 10972 10974 10976 10977 10978 10979 10980 10981 10981 10981 10982 10984 10985 10987 10988 10988 10988 10987 10988 10988 10988 10989 10990 10992 10993 10994 10994 10994 10993 10993 10991 10991
10915 10915 10916 10917 10918 10919 10920 10921 10922 10923 10924 10925 10926 10927 10929 10930 10931 10933 10934 10935 10936 10937 10938 10939 10940 10941 10942 10943 10943 10944 10945 10945 10945 10946 10947 10948 10949 10950 10950 10951 10952 10954 10955 10954 10955 10956 10957 10958 10959 10960 10961 10962 10963 10965 10966 10968 10970 10972 10974 10975 10977 10978 10979 10979 10980 10980 10982 10984 10985 10986 10986 10986 10986 10985 10986 10987 10987 10988 10989 10991 10992 10993 10993 10992 10992 10991 10991 10990
10909 10910 10911 10912 10913 10914 10914 10915 10916 10917 10918 10919 10921 10922 10923 10925 10926 10927 10929 10930 10931 10933 10934 10934 10936 10937 10938 10939 10939 10940 10941 10941 10942 10943 10943 10944 10946 10947 10947 10948 10950 10951 10953 10952 10952 10953 10954 10956 10957 10958 10959 10961 10962 10963 10964 10966 10968 10970 10972 10974 10975 10976 10977 10977 10978 10979 10981 10981 10983 10984 10984 10984 10984 10984 10985 10985 10986 10987 10988 10989 10990 10991 10990 10990 10990 10990 10990 10990
10904 10905 10905 10906 10907 10908 10909 10910 10911 10912 10913 10914 10915 10916 10918 10919 10921 10922 10924 10925 10927 10929 10930 10930 10931 10933 10934 10935 10935 10936 10937 10938 10939 10939 10940 10940 10942 10944 10945 10945 10947 10949 10950 10950 10950 10951 10952 10953 10954 10956 10957 10959 10960 10961 10963 10965 10967 10969 10971 10973 10974 10975 10976 10976 10977 10978 10979 10979 10980 10981 10982 10983 10982 10983 10984 10984 10985 10987 10988 10988 10988 10988 10988 10988 10989 10990 10990 10990
10899 10899 10900 10901 10902 10903 10903 10904 10905 10907 10908 10909 10910 10911 10912 10914 10915 10916 10918 10920 10922 10924 10925 10926 10927 10928 10929 10931 10931 10932 10933 10934 10935 10935 10935 10936 10939 10941 10942 10942 10944 10946 10947 10948 10948 10948 10949 10951 10952 10954 10956 10958 10959 10960 10962 10964 10966 10968 10970 10972 10974 10975 10975 10975 10976 10977 10977 10977 10978 10979 10980 10980 10981 10981 10982 10983 10985 10986 10987 10986 10986 10986 10986 10987 10988 10989 10989 10989
10893 10894 10894 10895 10896 10897 10898 10899 10900 10901 10902 10903 10904 10906 10907 10908 10910 10911 10913 10915 10917 10919 10921 10922 10922 10924 10925 10926 10927 10928 10929 10931 10931 10931 10931 10932 10935 10938 10939 10939 10941 10943 10944 10945 10946 10946 10947 10949 10951 10952 10955 10956 10957 10958 10959 10961 10963 10965 10968 10971 10974 10975 10974 10974 10975 10974 10974 10974 10976 10978 10978 10978 10979 10980 10981 10982 10983 10985 10985 10985 10985 10985 10985 10986 10987 10987 10987 10987
10887 10888 10889 10889 10890 10891 10892 10893 10894 10895 10896 10898 10899 10900 10901 10903 10904 10906 10908 10910 10912 10914 10916 10917 10918 10919 10920 10921 10923 10924 10925 10926 10926 10927 10927 10928 10931 10935 10935 10936 10938 10940 10942 10943 10944 10944 10944 10947 10949 10950 10953 10954 10954 10955 10957 10959 10961 10963 10966 10970 10972 10973 10972 10971 10971 10971 10971 10972 10975 10976 10976 10977 10977 10978 10979 10980 10982 10983 10983 10984 10984 10984 10985 10985 10986 10986 10986 10985
10882 10882 10883 10884 10884 10885 10886 10887 10888 10889 10891 10892 10893 10894 10896 10898 10899 10900 10902 10904 10907 10909 10911 10913 10913 10915 10915 10917 10920 10920 10920 10922 10922 10923 10924 10924 10928 10931 10932 10933 10935 10937 10939 10940 10941 10941 10942 10944 10947 10949 10951 10951 10952 10953 10954 10956 10959 10961 10963 10966 10967 10968 10968 10967 10967 10968 10969 10971 10973 10973 10973 10974 10976 10977 10978 10979 10981 10981 10982 10982 10982 10983 10984 10984 10985 10984 10983 10983
10876 10877 10877 10878 10879 10880 10881 10882 10883 10883 10885 10886 10887 10889 10891 10892 10894 10895 10897 10899 10901 10903 10905 10907 10909 10910 10910 10913 10917 10915 10915 10918 10918 10919 10920 10921 10924 10927 10929 10930 10932 10934 10936 10937 10938 10939 10940 10942 10944 10946 10948 10949 10949 10950 10951 10954 10956 10958 10960 10962 10963 10964 10964 10964 10965 10966 10967 10968 10970 10971 10971 10972 10973 10975 10976 10977 10979 10980 10980 10980 10981 10981 10982 10983 10983 10983 10982 10981
10871 10871 10872 10873 10873 10874 10875 10876 10877 10878 10879 10880 10882 10883 10885 10886 10888 10890 10892 10894 10896 10898 10900 10902 10903 10904 10905 10909 10913 10910 10911 10914 10914 10916 10917 10917 10921 10924 10926 10927 10929 10931 10933 10934 10936 10936 10938 10940 10941 10943 10945 10946 10946 10947 10949 10951 10953 10956 10957 10959 10960 10961 10962 10962 10963 10964 10965 10966 10967 10968 10969 10970 10971 10973 10974 10975 10977 10978 10978 10979 10979 10980 10980 10981 10981 10980 10979 10978
10865 10866 10867 10867 10868 10869 10870 10871 10872 10873 10873 10875 10876 10877 10879 10881 10883 10885 10886 10888 10891 10893 10895 10896 10897 10898 10900 10906 10908 10905 10905 10910 10911 10912 10913 10914 10917 10921 10922 10924 10926 10928 10930 10931 10933 10934 10936 10938 10938 10940 10942 10943 10943 10945 10947 10949 10951 10953 10955 10956 10958 10959 10959 10960 10961 10962 10963 10964 10964 10966 10967 10969 10970 10971 10972 10973 10975 10976 10976 10977 10977 10978 10978 10979 10979 10978 10977 10976
10860 10861 10861 10862 10863 10864 10865 10866 10867 10868 10868 10870 10871 10872 10874 10875 10878 10879 10881 10883 10885 10887 10889 10890 10891 10893 10896 10901 10903 10900 10901 10907 10909 10909 10909 10911 10914 10917 10918 10920 10923 10925 10926 10928 10930 10932 10934 10936 10935 10937 10939 10939 10940 10941 10943 10946 10948 10950 10952 10954 10955 10956 10957 10958 10960 10961 10962 10962 10963 10964 10966 10967 10969 10970 10971 10972 10973 10974 10974 10975 10975 10976 10976 10976 10976 10975 10974 10973
10854 10855 10856 10857 10858 10859 10860 10860 10861 10862 10863 10864 10866 10867 10868 10870 10872 10874 10876 10878 10880 10882 10883 10884 10886 10887 10891 10895 10897 10896 10898 10903 10906 10904 10905 10907 10910 10912 10914 10917 10919 10921 10923 10925 10927 10929 10931 10933 10932 10933 10935 10936 10937 10938 10940 10944 10947 10949 10951 10951 10952 10954 10956 10957 10958 10960 10961 10961 10962 10963 10964 10965 10966 10968 10970 10970 10971 10972 10972 10973 10973 10973 10974 10974 10973 10973 10972 10972
10848 10849 10850 10851 10852 10853 10854 10855 10855 10857 10858 10859 10860 10861 10863 10864 10866 10868 10870 10872 10873 10876 10877 10878 10880 10882 10885 10889 10892 10893 10894 10898 10901 10900 10901 10903 10906 10908 10911 10914 10915 10917 10919 10921 10924 10926 10928 10929 10929 10929 10931 10933 10935 10936 10938 10942 10945 10947 10948 10949 10950 10951 10953 10954 10955 10957 10958 10959 10960 10961 10962 10962 10964 10966 10967 10968 10969 10969 10970 10970 10970 10970 10970 10971 10971 10970 10970 10971
10843 10844 10844 10845 10846 10847 10848 10849 10849 10850 10851 10852 10854 10855 10857 10858 10860 10861 10863 10865 10867 10870 10872 10873 10875 10876 10879 10882 10887 10889 10890 10893 10896 10896 10897 10900 10903 10905 10908 10910 10911 10913 10915 10917 10920 10923 10924 10926 10927 10927 10928 10931 10933 10934 10935 10937 10940 10943 10946 10947 10948 10949 10950 10951 10952 10954 10955 10957 10958 10959 10960 10961 10962 10964 10965 10965 10966 10967 10967 10967 10967 10967 10968 10968 10968 10969 10969 10970
10838 10838 10839 10840 10841 10842 10842 10843 10844 10844 10846 10847 10847 10849 10850 10851 10853 10854 10856 10858 10860 10863 10866 10867 10867 10869 10873 10876 10881 10885 10887 10890 10891 10891 10895 10897 10899 10902 10904 10907 10908 10909 10912 10914 10917 10920 10921 10923 10925 10926 10926 10928 10930 10931 10931 10933 10936 10940 10942 10944 10946 10946 10947 10948 10950 10951 10952 10954 10956 10957 10958 10959 10960 10962 10963 10963 10963 10964 10964 10965 10965 10965 10966 10966 10967 10968 10968 10969
10834 10834 10835 10836 10837 10837 10838 10838 10839 10840 10841 10842 10842 10843 10844 10844 10846 10848 10849 10850 10853 10856 10858 10858 10859 10863 10867 10870 10875 10880 10883 10886 10886 10886 10890 10894 10896 10897 10899 10902 10904 10906 10909 10912 10914 10916 10918 10920 10922 10923 10924 10926 10928 10927 10928 10930 10934 10937 10938 10940 10943 10944 10945 10946 10948 10950 10952 10953 10954 10955 10956 10957 10958 10960 10960 10961 10961 10961 10962 10963 10963 10963 10964 10964 10965 10967 10967 10967
10831 10831 10832 10832 10833 10834 10834 10835 10835 10836 10837 10838 10837 10838 10839 10838 10840 10842 10841 10842 10844 10848 10849 10850 10851 10855 10861 10864 10869 10875 10878 10880 10881 10881 10884 10888 10891 10892 10895 10898 10900 10903 10907 10909 10910 10912 10915 10918 10919 10920 10922 10924 10924 10924 10925 10927 10931 10933 10934 10937 10940 10942 10943 10945 10946 10949 10950 10951 10951 10952 10954 10955 10956 10957 10957 10958 10958 10959 10960 10961 10962 10962 10962 10963 10964 10965 10965 10965
10828 10828 10829 10829 10830 10830 10831 10831 10832 10833 10833 10833 10833 10833 10833 10833 10835 10834 10833 10834 10837 10839 10841 10842 10843 10848 10855 10857 10862 10868 10871 10873 10874 10876 10879 10882 10885 10888 10891 10894 10896 10900 10903 10904 10905 10908 10912 10915 10916 10917 10919 10920 10920 10921 10922 10925 10928 10931 10932 10934 10937 10939 10941 10943 10944 10946 10948 10948 10949 10950 10951 10952 10953 10954 10955 10956 10957 10958 10959 10960 10960 10960 10960 10962 10963 10963 10963 10963
10825 10825 10825 10826 10826 10827 10828 10828 10829 10829 10829 10829 10829 10829 10829 10828 10829 10829 10828 10828 10830 10832 10833 10835 10836 10840 10846 10850 10856 10861 10863 10866 10868 10871 10875 10877 10880 10884 10887 10890 10894 10896 10898 10899 10901 10905 10909 10912 10912 10914 10915 10916 10916 10916 10917 10921 10926 10928 10930 10932 10934 10936 10938 10940 10942 10944 10945 10946 10947 10948 10949 10950 10950 10952 10953 10954 10956 10957 10958 10958 10958 10958 10959 10960 10961 10961 10961 10962
10821 10822 10822 10823 10823 10824 10824 10825 10825 10824 10825 10825 10825 10825 10824 10824 10825 10824 10823 10822 10825 10827 10827 10828 10828 10832 10840 10845 10848 10850 10854 10859 10862 10865 10869 10872 10876 10880 10883 10887 10890 10891 10893 10895 10897 10901 10906 10908 10908 10910 10911 10911 10912 10912 10913 10919 10923 10926 10929 10931 10933 10935 10936 10937 10938 10940 10942 10944 10945 10945 10947 10948 10948 10949 10951 10953 10954 10955 10955 10955 10955 10956 10957 10958 10959 10959 10960 10960
10818 10818 10819 10819 10819 10820 10821 10821 10820 10820 10821 10820 10820 10820 10819 10819 10818 10817 10817 10816 10819 10822 10821 10821 10822 10827 10835 10838 10839 10842 10848 10852 10855 10859 10864 10867 10872 10875 10879 10882 10884 10886 10888 10891 10894 10898 10902 10903 10905 10906 10907 10908 10909 10909 10911 10917 10922 10925 10928 10929 10930 10932 10932 10933 10935 10936 10938 10940 10942 10943 10945 10946 10946 10947 10949 10951 10952 10953 10953 10953 10953 10954 10955 10957 10957 10957 10957 10957
10815 10815 10815 10815 10815 10816 10817 10816 10816 10816 10816 10816 10816 10815 10813 10813 10811 10810 10810 10809 10813 10817 10815 10815 10817 10822 10828 10831 10833 10837 10840 10841 10846 10854 10858 10861 10865 10869 10873 10876 10878 10880 10884 10888 10890 10893 10896 10898 10901 10902 10902 10904 10905 10905 10909 10915 10919 10923 10925 10925 10926 10927 10928 10930 10932 10933 10935 10937 10939 10942 10944 10944 10944 10945 10946 10948 10950 10950 10950 10951 10951 10952 10954 10955 10955 10955 10955 10955
10811 10811 10810 10811 10812 10812 10812 10812 10811 10811 10812 10812 10811 10810 10808 10807 10805 10805 10805 10805 10808 10810 10808 10810 10813 10817 10822 10825 10826 10827 10829 10833 10841 10849 10851 10854 10859 10864 10867 10870 10872 10876 10880 10883 10885 10888 10892 10895 10897 10899 10899 10900 10902 10904 10907 10911 10915 10919 10921 10921 10922 10924 10926 10929 10930 10931 10932 10934 10936 10938 10941 10942 10943 10943 10944 10945 10947 10948 10948 10948 10949 10950 10952 10952 10952 10952 10953 10953
10806 10806 10806 10807 10808 10808 10808 10807 10807 10807 10808 10807 10806 10805 10803 10801 10800 10800 10800 10801 10803 10803 10804 10807 10810 10813 10816 10818 10819 10821 10824 10829 10836 10842 10845 10848 10855 10859 10862 10864 10868 10873 10877 10878 10880 10885 10889 10891 10894 10895 10894 10896 10900 10902 10904 10907 10911 10914 10917 10918 10919 10920 10923 10926 10927 10928 10929 10930 10932 10934 10937 10938 10939 10940 10941 10942 10944 10945 10946 10946 10947 10948 10949 10950 10950 10950 10951 10951
10800 10801 10801 10803 10803 10803 10803 10803 10803 10803 10803 10802 10801 10800 10798 10797 10795 10795 10796 10797 10798 10799 10801 10804 10806 10809 10811 10813 10815 10817 10821 10824 10829 10837 10840 10843 10849 10853 10857 10861 10865 10871 10873 10874 10876 10880 10883 10886 10888 10888 10889 10893 10896 10898 10900 10903 10906 10910 10914 10915 10915 10918 10921 10923 10925 10926 10927 10928 10930 10931 10933 10935 10936 10937 10938 10939 10941 10943 10943 10944 10945 10946 10947 10948 10948 10948 10948 10948
10796 10796 10797 10798 10798 10799 10799 10798 10798 10799 10798 10798 10797 10795 10794 10792 10791 10791 10791 10792 10792 10793 10796 10799 10802 10805 10807 10809 10811 10813 10816 10819 10824 10832 10834 10837 10844 10849 10853 10858 10862 10866 10869 10869 10870 10873 10878 10880 10881 10882 10886 10890 10892 10894 10898 10900 10903 10907 10910 10910 10912 10916 10918 10920 10922 10925 10926 10926 10927 10929 10930 10931 10933 10935 10935 10936 10938 10939 10941 10942 10942 10943 10944 10945 10945 10946 10946 10945
10792 10792 10792 10793 10794 10794 10794 10793 10794 10794 10794 10793 10793 10791 10790 10788 10786 10786 10786 10786 10786 10788 10792 10795 10798 10801 10803 10805 10807 10808 10812 10814 10818 10825 10828 10831 10837 10842 10847 10851 10855 10859 10861 10860 10862 10868 10873 10875 10876 10880 10884 10886 10888 10891 10894 10898 10901 10904 10905 10905 10910 10914 10915 10917 10918 10921 10923 10924 10925 10926 10927 10929 10931 10933 10933 10934 10935 10937 10939 10940 10941 10941 10941 10941 10942 10942 10941 10940
10788 10788 10788 10789 10789 10790 10790 10789 10790 10790 10790 10789 10789 10787 10786 10784 10783 10782 10782 10782 10783 10785 10789 10793 10796 10798 10799 10800 10802 10804 10807 10809 10813 10819 10823 10826 10830 10836 10841 10845 10848 10852 10854 10854 10858 10864 10868 10871 10875 10878 10880 10882 10883 10886 10891 10894 10897 10898 10898 10901 10907 10910 10912 10914 10914 10915 10919 10921 10922 10923 10925 10927 10929 10930 10932 10933 10935 10936 10937 10939 10939 10939 10940 10939 10939 10938 10937 10937
10785 10785 10785 10785 10785 10786 10786 10785 10786 10786 10786 10785 10784 10783 10783 10782 10781 10780 10780 10780 10782 10784 10787 10791 10793 10795 10796 10797 10799 10800 10803 10805 10808 10813 10818 10822 10826 10831 10836 10841 10845 10848 10850 10852 10856 10860 10865 10868 10871 10872 10875 10877 10879 10883 10887 10891 10893 10893 10894 10899 10904 10907 10908 10909 10908 10910 10914 10917 10918 10920 10922 10925 10927 10928 10929 10931 10934 10935 10935 10936 10937 10937 10937 10936 10936 10935 10935 10935
10782 10781 10781 10782 10782 10782 10782 10782 10782 10782 10782 10781 10781 10781 10780 10780 10779 10778 10778 10779 10780 10782 10785 10788 10790 10792 10794 10795 10795 10796 10799 10801 10804 10808 10814 10818 10821 10825 10830 10835 10839 10842 10846 10849 10852 10856 10860 10862 10864 10866 10870 10873 10876 10880 10883 10887 10890 10891 10894 10898 10900 10901 10902 10903 10904 10907 10910 10912 10914 10917 10919 10922 10923 10925 10926 10928 10931 10934 10934 10934 10934 10933 10932 10932 10932 10932 10932 10933
10778 10778 10778 10778 10778 10778 10778 10778 10778 10778 10778 10777 10778 10778 10777 10777 10776 10775 10776 10776 10776 10778 10781 10783 10786 10788 10789 10790 10790 10791 10794 10798 10800 10805 10810 10814 10817 10819 10823 10829 10833 10837 10842 10845 10846 10850 10854 10856 10859 10863 10866 10870 10874 10876 10880 10884 10886 10887 10891 10893 10894 10895 10898 10900 10902 10904 10906 10908 10911 10913 10915 10917 10920 10922 10924 10925 10927 10930 10933 10932 10931 10930 10928 10928 10928 10928 10929 10930
10776 10775 10775 10775 10775 10774 10774 10774 10774 10774 10774 10774 10775 10775 10774 10774 10773 10773 10772 10771 10772 10774 10777 10779 10781 10781 10782 10784 10786 10787 10790 10794 10798 10802 10805 10809 10812 10814 10818 10824 10828 10833 10837 10839 10842 10845 10849 10852 10856 10859 10863 10867 10870 10874 10877 10880 10882 10884 10887 10888 10890 10892 10895 10898 10900 10901 10903 10905 10908 10910 10911 10914 10917 10919 10921 10922 10923 10926 10929 10929 10929 10928 10926 10926 10926 10926 10927 10928
10773 10772 10771 10771 10771 10771 10770 10770 10770 10770 10770 10770 10771 10771 10771 10770 10769 10769 10768 10768 10769 10771 10773 10775 10775 10775 10777 10781 10783 10785 10787 10791 10795 10798 10801 10804 10807 10809 10813 10819 10824 10827 10831 10834 10837 10841 10845 10848 10852 10855 10858 10861 10866 10871 10874 10876 10879 10881 10882 10884 10888 10890 10893 10895 10897 10898 10899 10901 10904 10907 10908 10910 10913 10916 10918 10919 10921 10922 10923 10923 10925 10925 10925 10926 10927 10927 10927 10926
10770 10769 10768 10768 10768 10767 10767 10766 10766 10766 10766 10767 10767 10767 10767 10766 10765 10765 10764 10764 10764 10767 10770 10770 10769 10771 10775 10778 10781 10783 10785 10788 10792 10795 10797 10800 10801 10804 10808 10814 10820 10822 10826 10831 10833 10836 10840 10844 10848 10851 10854 10858 10864 10867 10870 10873 10876 10877 10877 10882 10886 10888 10890 10891 10892 10894 10896 10897 10901 10903 10904 10906 10908 10913 10916 10917 10919 10919 10918 10918 10920 10920 10921 10925 10927 10927 10926 10924
10767 10766 10765 10765 10764 10764 10763 10763 10762 10762 10763 10763 10764 10764 10763 10761 10761 10761 10761 10759 10760 10762 10764 10764 10765 10767 10770 10772 10776 10779 10780 10784 10788 10791 10794 10797 10798 10800 10805 10810 10815 10817 10821 10825 10828 10831 10836 10840 10843 10847 10852 10858 10861 10863 10866 10869 10871 10872 10875 10880 10883 10883 10885 10885 10887 10890 10891 10892 10895 10897 10900 10903 10906 10910 10913 10915 10915 10915 10915 10915 10915 10915 10917 10922 10924 10924 10923 10921
10764 10763 10762 10761 10761 10760 10760 10759 10759 10759 10759 10759 10760 10760 10759 10758 10757 10757 10757 10756 10756 10757 10758 10759 10761 10763 10765 10768 10772 10774 10777 10780 10784 10786 10790 10793 10795 10796 10801 10805 10808 10811 10816 10820 10824 10829 10833 10835 10839 10844 10850 10854 10856 10858 10863 10866 10868 10870 10872 10875 10877 10878 10880 10882 10884 10886 10886 10888 10890 10892 10896 10901 10904 10907 10910 10911 10910 10911 10912 10912 10911 10912 10914 10917 10920 10920 10919 10918
10760 10759 10758 10758 10757 10757 10756 10756 10755 10755 10756 10755 10755 10756 10756 10755 10753 10753 10753 10752 10751 10751 10753 10756 10758 10759 10760 10763 10768 10771 10773 10776 10779 10781 10784 10788 10789 10790 10794 10798 10801 10806 10812 10816 10820 10824 10827 10830 10835 10841 10845 10849 10852 10856 10861 10863 10864 10867 10868 10870 10872 10875 10877 10879 10880 10880 10882 10885 10886 10888 10893 10897 10900 10904 10907 10907 10907 10908 10909 10909 10909 10910 10911 10913 10915 10915 10915 10914
10756 10755 10754 10754 10754 10753 10753 10753 10752 10752 10752 10751 10751 10752 10752 10751 10750 10749 10748 10747 10746 10747 10749 10751 10753 10754 10755 10759 10764 10767 10769 10771 10774 10776 10779 10781 10782 10783 10786 10791 10796 10801 10806 10810 10814 10818 10822 10826 10832 10837 10841 10845 10849 10852 10856 10858 10860 10863 10865 10867 10870 10873 10874 10874 10875 10877 10881 10882 10882 10883 10888 10891 10895 10901 10903 10904 10904 10905 10905 10905 10906 10907 10908 10910 10910 10910 10911 10911
10751 10751 10751 10751 10751 10750 10750 10749 10749 10748 10748 10747 10747 10748 10747 10747 10747 10745 10743 10742 10742 10742 10743 10744 10746 10747 10750 10755 10759 10761 10764 10767 10770 10772 10775 10776 10778 10780 10782 10786 10792 10797 10801 10805 10808 10813 10818 10821 10827 10832 10836 10840 10843 10846 10850 10854 10856 10859 10861 10864 10866 10868 10869 10869 10871 10875 10878 10877 10877 10880 10884 10887 10892 10898 10901 10902 10903 10903 10902 10903 10903 10904 10906 10907 10908 10908 10910 10910
10746 10747 10747 10747 10747 10746 10746 10746 10745 10745 10744 10744 10744 10744 10743 10744 10743 10741 10739 10738 10737 10736 10737 10739 10742 10744 10747 10750 10754 10757 10762 10764 10765 10767 10769 10770 10771 10775 10777 10781 10787 10792 10795 10798 10802 10808 10812 10815 10821 10827 10831 10835 10838 10841 10845 10849 10851 10853 10855 10858 10861 10863 10865 10866 10868 10872 10873 10874 10876 10877 10880 10884 10890 10895 10898 10901 10902 10901 10899 10899 10900 10902 10904 10905 10906 10908 10909 10909
10741 10742 10742 10742 10742 10742 10742 10742 10742 10741 10741 10740 10740 10740 10740 10740 10739 10738 10735 10734 10733 10733 10734 10736 10739 10741 10743 10746 10749 10752 10756 10759 10760 10761 10763 10763 10763 10767 10771 10776 10781 10785 10788 10791 10797 10803 10808 10812 10818 10824 10828 10831 10832 10833 10839 10844 10846 10848 10851 10854 10856 10859 10862 10863 10865 10869 10871 10872 10873 10873 10876 10882 10887 10891 10895 10897 10897 10896 10894 10895 10897 10899 10901 10902 10904 10905 10906 10907
10736 10736 10737 10738 10738 10738 10738 10738 10738 10738 10737 10737 10736 10736 10736 10736 10736 10734 10732 10730 10729 10730 10731 10733 10735 10737 10739 10741 10744 10747 10750 10752 10753 10754 10756 10756 10758 10762 10768 10772 10777 10780 10783 10787 10795 10801 10805 10810 10816 10821 10825 10826 10827 10830 10836 10840 10843 10844 10847 10849 10851 10854 10858 10860 10863 10866 10867 10869 10869 10870 10874 10878 10881 10886 10890 10891 10891 10890 10890 10891 10894 10895 10896 10898 10900 10901 10902 10903
10730 10731 10732 10732 10733 10734 10734 10734 10734 10734 10734 10733 10733 10732 10732 10732 10732 10731 10729 10727 10727 10728 10729 10730 10731 10733 10734 10736 10739 10742 10745 10748 10749 10751 10752 10752 10754 10759 10763 10767 10772 10776 10782 10790 10796 10797 10799 10804 10810 10815 10820 10822 10823 10827 10832 10835 10837 10840 10841 10844 10847 10850 10854 10857 10860 10861 10862 10864 10864 10866 10870 10872 10876 10882 10885 10885 10887 10887 10887 10889 10890 10891 10893 10895 10896 10897 10899 10900
10723 10725 10726 10727 10728 10729 10729 10730 10730 10730 10730 10730 10729 10729 10729 10729 10729 10728 10727 10725 10724 10724 10725 10726 10727 10728 10730 10731 10734 10738 10742 10745 10747 10748 10749 10750 10752 10756 10759 10763 10767 10771 10778 10786 10788 10788 10793 10799 10804 10807 10811 10816 10819 10823 10827 10830 10833 10836 10838 10840 10843 10847 10851 10855 10857 10857 10859 10861 10861 10863 10867 10868 10872 10878 10880 10882 10884 10884 10883 10885 10886 10888 10890 10892 10894 10895 10896 10897
10717 10719 10720 10722 10723 10724 10725 10726 10726 10726 10727 10727 10726 10726 10725 10725 10725 10725 10724 10723 10722 10721 10722 10723 10725 10727 10729 10731 10734 10738 10742 10744 10745 10746 10747 10747 10749 10753 10757 10762 10766 10768 10772 10775 10776 10782 10790 10796 10801 10804 10806 10810 10814 10819 10824 10828 10831 10834 10837 10840 10842 10844 10847 10851 10854 10854 10856 10858 10858 10860 10863 10865 10867 10873 10877 10879 10881 10881 10881 10882 10883 10885 10888 10889 10891 10892 10893 10893
10710 10712 10714 10716 10717 10719 10720 10721 10721 10722 10723 10723 10722 10721 10721 10721 10721 10721 10721 10720 10720 10720 10721 10722 10724 10726 10728 10729 10732 10736 10738 10740 10741 10742 10742 10743 10746 10751 10755 10761 10765 10766 10767 10770 10776 10785 10791 10795 10800 10805 10807 10808 10810 10814 10818 10823 10829 10834 10837 10838 10839 10841 10842 10844 10846 10848 10850 10852 10853 10855 10858 10861 10865 10871 10876 10877 10878 10879 10879 10879 10880 10881 10882 10884 10885 10887 10888 10887
10704 10705 10707 10709 10712 10713 10714 10716 10717 10718 10718 10718 10717 10717 10717 10717 10717 10717 10717 10717 10718 10718 10719 10720 10722 10723 10724 10726 10729 10731 10733 10735 10736 10736 10735 10737 10741 10747 10751 10756 10759 10760 10764 10770 10777 10784 10790 10794 10800 10804 10806 10808 10810 10811 10814 10819 10825 10829 10829 10830 10832 10834 10836 10838 10840 10841 10843 10845 10847 10851 10856 10859 10865 10871 10874 10874 10874 10876 10876 10876 10877 10877 10877 10878 10878 10880 10881 10881